Location: Unspecified
(0.0000°N, 0.0000°E)
Time: 03:02:14
(UTC+00:00)

COSMOS 1275 DEB - Visible Passes

Search period start: 17 March 2026 00:00
Search period end: 27 March 2026 00:00
Orbit: 902 x 973 km, 82.9° (Epoch: 13 March)

Date Brightness Start Highest point End Pass type
(mag) Time Alt. Az. Time Alt. Az. Time Alt. Az.
17 Mar ? 18:40:52 10° N 18:47:06 79° E 18:53:18 10° S visible
18 Mar ? 18:54:56 10° NNW 19:01:05 64° W 19:07:13 10° S visible
19 Mar ? 19:09:23 10° NNW 19:15:04 38° W 19:20:44 10° SSW visible
20 Mar ? 19:24:21 10° NW 19:29:02 23° W 19:33:44 10° SW visible
21 Mar ? 19:40:24 10° WNW 19:43:01 13° W 19:45:38 10° WSW visible
22 Mar ? 05:10:16 10° SE 05:13:34 15° E 05:16:52 10° ENE visible
23 Mar ? 05:22:41 10° SSE 05:27:32 27° E 05:32:23 10° NE visible
23 Mar ? 18:20:37 10° NNW 18:26:44 63° W 18:32:50 10° S visible
24 Mar ? 05:35:54 10° SSE 05:41:29 46° E 05:47:06 10° NNE visible
24 Mar ? 18:35:04 10° NNW 18:40:42 37° W 18:46:20 10° SSW visible
25 Mar ? 18:50:02 10° NW 18:54:41 22° W 18:59:19 10° SW visible
26 Mar ? 19:06:08 10° WNW 19:08:38 13° W 19:11:08 10° WSW visible
